Flag for Belarus Weather past 2 weeks in Minsk, Belarus

Now
36 °F

Partly sunny.


Feels Like: 28 °F
Forecast: 29 / 40 °F
Wind: 10 mph from West

Location: Loshitsa / Minsk International 1

Current Time: Dec 21, 2014 at 2:42:26 PM

Latest Report: Dec 21, 2014 at 2:00 PM


Visibility: N/A

Pressure: 29.65 "Hg

Humidity: 87%

Dew point: 32 °F

Location of MinskLocation

Historic Weather in Minsk — Graph

°F

Minsk temperature yesterday

Maximum temperature yesterday: 41 °F (at 7:00 AM)
Minimum temperature yesterday: 37 °F (at 11:00 AM)
Average temperature yesterday: 39 °F

Past Weeks' High & Low Weather Summary

 TemperatureHumidityPressure
High48 °F (Dec 19, 7:00 PM)100% (Dec 6, 7:00 PM)30.33 "Hg (Dec 6, 7:00 PM)
Low23 °F (Dec 6, 1:00 PM)81% (Dec 13, 11:00 AM)29.50 "Hg (Dec 19, 10:00 AM)
Average33 °F94%29.90 "Hg
* Reported Dec 6 1:00 PM — Dec 21 1:30 PM, Minsk, Weather by CustomWeather, © 2014

Note: Actual official high and low records may vary slightly from our data, if they occured in-between our weather recording intervals... More about our weather records

Advertising

Minsk weather history for previous 24 hours

 ConditionsComfort  
Time TempWeatherWind HumidityBarometerVisibility
1:30 PM
Dec 21
36 °FPartly sunny.10 mph93%29.65 "HgN/A
1:00 PM36 °FOvercast.10 mph93%29.62 "HgN/A
12:30 PM34 °FLow clouds.10 mph100%29.62 "HgN/A
12:00 PM34 °FLow clouds.8 mph100%29.62 "HgN/A
11:30 AM36 °FFog.8 mph87%29.62 "Hg3 mi
11:00 AM36 °FSnow flurries. Overcast.10 mph87%29.59 "Hg3 mi
10:30 AM36 °FOvercast.8 mph87%29.59 "HgN/A
10:00 AM36 °FOvercast.10 mph87%29.56 "HgN/A
9:30 AM36 °FPassing clouds.10 mph87%29.56 "HgN/A
9:00 AM36 °FPassing clouds.10 mph87%29.56 "HgN/A
8:30 AM36 °FMostly cloudy.8 mph93%29.53 "HgN/A
8:00 AM36 °FMostly cloudy.8 mph93%29.53 "HgN/A
7:30 AM36 °FPassing clouds.10 mph93%29.53 "HgN/A
7:00 AM36 °FPassing clouds.8 mph93%29.53 "HgN/A
8:30 PM
Dec 20
37 °FMostly cloudy.13 mph87%29.53 "HgN/A
8:00 PM37 °FPassing clouds.13 mph87%29.56 "HgN/A
7:30 PM37 °FPassing clouds.13 mph87%29.56 "HgN/A
7:00 PM37 °FPassing clouds.13 mph87%29.56 "HgN/A
6:30 PM37 °FPassing clouds.13 mph87%29.56 "HgN/A
6:00 PM37 °FPassing clouds.13 mph87%29.56 "HgN/A
5:30 PM37 °FSprinkles. Partly sunny.13 mph87%29.56 "HgN/A
5:00 PM37 °FSprinkles. Partly sunny.13 mph87%29.56 "Hg2 mi
4:30 PM39 °FPartly sunny.15 mph81%29.56 "HgN/A
4:00 PM39 °FPartly sunny.15 mph81%29.56 "HgN/A
3:30 PM39 °FPartly sunny.15 mph81%29.56 "HgN/A
3:00 PM39 °FPartly sunny.15 mph81%29.56 "HgN/A
2:30 PM39 °FPartly sunny.15 mph81%29.59 "HgN/A
2:00 PM39 °FPartly sunny.15 mph81%29.59 "HgN/A
Weather by CustomWeather, © 2014

See weather overviewHow to use our weather pages